| time (UTC) | temp F | wind direction | speed MPH | gust MPH | rain 1hr in | rain 24hr in | rain mn in | humidity % | barometer mb |
| 20260906064511 | 79 | 113 | 0.0 | 0.0 | 0.00 | 0.00 | 0.00 | 83 | 1010.8 |
| 20260906063053 | 80 | 113 | 0.0 | 0.0 | 0.00 | 0.00 | 0.00 | 83 | 1010.9 |
| 20260906061533 | 80 | 113 | 0.0 | 0.0 | 0.00 | 0.00 | 0.00 | 82 | 1010.8 |
| 20260906060015 | 81 | 113 | 0.0 | 0.0 | 0.00 | 0.00 | 0.00 | 81 | 1010.8 |
| 20260906054558 | 81 | 113 | 0.0 | 0.0 | 0.00 | 0.00 | 0.00 | 79 | 1010.8 |
| 20260906053037 | 82 | 113 | 0.0 | 0.0 | 0.00 | 0.00 | 0.00 | 78 | 1010.8 |
| 20260906051519 | 82 | 113 | 0.0 | 0.0 | 0.00 | 0.00 | 0.00 | 78 | 1010.9 |
| 20260906050053 | 83 | 113 | 0.0 | 0.0 | 0.00 | 0.00 | 0.00 | 77 | 1010.9 |
| 20260906044531 | 84 | 113 | 0.0 | 0.0 | 0.00 | 0.00 | 0.00 | 73 | 1010.7 |
| 20260906043022 | 85 | 113 | 0.0 | 0.0 | 0.00 | 0.00 | 0.00 | 73 | 1010.3 |
| 20260906041551 | 85 | 113 | 0.0 | 0.0 | 0.00 | 0.00 | 0.00 | 73 | 1010.3 |
| 20260906040039 | 85 | 113 | 0.0 | 0.0 | 0.00 | 0.00 | 0.00 | 72 | 1010.4 |
| 20260906034527 | 85 | 113 | 0.0 | 0.0 | 0.00 | 0.00 | 0.00 | 72 | 1010.7 |
| 20260906033007 | 86 | 113 | 0.0 | 0.0 | 0.00 | 0.00 | 0.00 | 70 | 1010.8 |
| 20260906031546 | 86 | 113 | 0.0 | 0.0 | 0.00 | 0.00 | 0.00 | 69 | 1011.0 |
| 20260906030023 | 86 | 113 | 0.0 | 0.0 | 0.00 | 0.00 | 0.00 | 69 | 1011.0 |
| 20260906024508 | 87 | 113 | 0.0 | 0.0 | 0.00 | 0.00 | 0.00 | 68 | 1011.0 |
| 20260906023050 | 87 | 113 | 0.0 | 0.0 | 0.00 | 0.00 | 0.00 | 67 | 1010.9 |
| 20260906021542 | 88 | 113 | 0.0 | 0.0 | 0.00 | 0.00 | 0.00 | 64 | 1010.6 |
| 20260906020019 | 88 | 98 | 0.0 | 0.0 | 0.00 | 0.00 | 0.00 | 63 | 1010.4 |
| 20260906014606 | 86 | 275 | 0.0 | 2.0 | 0.00 | 0.00 | 0.00 | 66 | 1010.2 |
| 20260906014503 | 86 | 275 | 0.0 | 2.0 | 0.00 | 0.00 | 0.00 | 66 | 1010.3 |
| 20260906013052 | 86 | 275 | 0.0 | 1.0 | 0.00 | 0.00 | 0.00 | 67 | 1010.1 |
| 20260906011532 | 87 | 275 | 0.0 | 0.0 | 0.00 | 0.00 | 0.00 | 66 | 1009.8 |
| 20260906010018 | 88 | 275 | 0.0 | 0.0 | 0.00 | 0.00 | 0.00 | 64 | 1009.7 |
| 20260906004558 | 89 | 275 | 0.0 | 1.0 | 0.00 | 0.00 | 0.00 | 64 | 1009.6 |
| 20260906004500 | 89 | 275 | 0.0 | 1.0 | 0.00 | 0.00 | 0.00 | 64 | 1009.6 |
| 20260906003040 | 90 | 94 | 0.0 | 0.0 | 0.00 | 0.00 | 0.00 | 60 | 1009.5 |
| 20260906001525 | 91 | 135 | 0.0 | 1.0 | 0.00 | 0.00 | 0.00 | 57 | 1009.7 |
| 20260906000007 | 93 | 130 | 0.0 | 2.0 | 0.00 | 0.00 | 0.00 | 54 | 1009.6 |
| 20260905234547 | 95 | 85 | 0.0 | 2.0 | 0.00 | 0.00 | 0.00 | 50 | 1009.6 |
| 20260905233022 | 95 | 110 | 1.0 | 3.0 | 0.00 | 0.00 | 0.00 | 49 | 1009.5 |
| 20260905231511 | 96 | 75 | 0.0 | 2.0 | 0.00 | 0.00 | 0.00 | 51 | 1009.6 |
| 20260905230048 | 96 | 84 | 0.0 | 3.0 | 0.00 | 0.00 | 0.00 | 49 | 1009.6 |
| 20260905224532 | 97 | 123 | 1.0 | 4.0 | 0.00 | 0.00 | 0.00 | 48 | 1009.4 |
| 20260905223010 | 97 | 88 | 1.0 | 4.0 | 0.00 | 0.00 | 0.00 | 45 | 1009.5 |
| 20260905221551 | 97 | 96 | 1.0 | 6.0 | 0.00 | 0.00 | 0.00 | 47 | 1009.4 |
| 20260905220030 | 97 | 90 | 1.0 | 6.0 | 0.00 | 0.00 | 0.00 | 45 | 1009.6 |
| 20260905214506 | 98 | 40 | 1.0 | 4.0 | 0.00 | 0.00 | 0.00 | 46 | 1009.6 |
| 20260905213049 | 98 | 94 | 2.0 | 4.0 | 0.00 | 0.00 | 0.00 | 45 | 1009.6 |
| 20260905211535 | 99 | 91 | 0.0 | 3.0 | 0.00 | 0.00 | 0.00 | 45 | 1009.8 |
| 20260905210015 | 99 | 247 | 0.0 | 3.0 | 0.00 | 0.00 | 0.00 | 43 | 1010.0 |
| 20260905204558 | 99 | 146 | 0.0 | 3.0 | 0.00 | 0.00 | 0.00 | 45 | 1010.4 |
| 20260905204506 | 99 | 146 | 0.0 | 3.0 | 0.00 | 0.00 | 0.00 | 46 | 1010.3 |
| 20260905203042 | 99 | 122 | 0.0 | 3.0 | 0.00 | 0.00 | 0.00 | 43 | 1010.6 |
| 20260905201522 | 99 | 119 | 0.0 | 3.0 | 0.00 | 0.00 | 0.00 | 47 | 1010.9 |
| 20260905200004 | 99 | 283 | 0.0 | 4.0 | 0.00 | 0.00 | 0.00 | 44 | 1010.9 |
| 20260905194546 | 98 | 76 | 2.0 | 4.0 | 0.00 | 0.00 | 0.00 | 48 | 1011.1 |
| 20260905193027 | 98 | 46 | 1.0 | 5.0 | 0.00 | 0.00 | 0.00 | 44 | 1011.4 |
| 20260905191511 | 98 | 112 | 0.0 | 3.0 | 0.00 | 0.00 | 0.00 | 42 | 1011.5 |
| 20260905190058 | 98 | 82 | 2.0 | 6.0 | 0.00 | 0.00 | 0.00 | 44 | 1011.7 |
| 20260905184541 | 98 | 100 | 2.0 | 6.0 | 0.00 | 0.00 | 0.00 | 45 | 1011.8 |
| 20260905183015 | 98 | 94 | 1.0 | 4.0 | 0.00 | 0.00 | 0.00 | 46 | 1012.0 |
| 20260905181556 | 98 | 34 | 0.0 | 4.0 | 0.00 | 0.00 | 0.00 | 46 | 1012.2 |
| 20260905180050 | 98 | 150 | 1.0 | 2.0 | 0.00 | 0.00 | 0.00 | 47 | 1012.3 |
| 20260905174526 | 97 | 201 | 0.0 | 3.0 | 0.00 | 0.00 | 0.00 | 48 | 1012.5 |
| 20260905173005 | 96 | 76 | 1.0 | 5.0 | 0.00 | 0.00 | 0.00 | 50 | 1012.7 |
| 20260905171547 | 97 | 111 | 0.0 | 3.0 | 0.00 | 0.00 | 0.00 | 54 | 1013.0 |
| 20260905170022 | 95 | 105 | 1.0 | 3.0 | 0.00 | 0.00 | 0.00 | 55 | 1013.1 |
| 20260905164508 | 95 | 113 | 1.0 | 3.0 | 0.00 | 0.00 | 0.00 | 59 | 1013.3 |
| 20260905163044 | 94 | 298 | 0.0 | 3.0 | 0.00 | 0.00 | 0.00 | 58 | 1013.4 |
| 20260905161523 | 93 | 116 | 1.0 | 3.0 | 0.00 | 0.00 | 0.00 | 61 | 1013.5 |
| 20260905160009 | 93 | 180 | 1.0 | 4.0 | 0.00 | 0.00 | 0.00 | 61 | 1013.5 |
| 20260905154543 | 92 | 325 | 0.0 | 3.0 | 0.00 | 0.00 | 0.00 | 58 | 1013.6 |
| 20260905153033 | 91 | 42 | 1.0 | 2.0 | 0.00 | 0.00 | 0.00 | 61 | 1013.6 |
| 20260905151511 | 90 | 338 | 0.0 | 2.0 | 0.00 | 0.00 | 0.00 | 66 | 1013.6 |
| 20260905150044 | 89 | 331 | 1.0 | 3.0 | 0.00 | 0.00 | 0.00 | 70 | 1013.5 |
| 20260905144525 | 87 | 312 | 0.0 | 2.0 | 0.00 | 0.00 | 0.00 | 71 | 1013.3 |
| 20260905143004 | 86 | 345 | 1.0 | 2.0 | 0.00 | 0.00 | 0.00 | 72 | 1013.4 |
| 20260905141552 | 85 | 320 | 0.0 | 2.0 | 0.00 | 0.00 | 0.00 | 79 | 1013.4 |
| 20260905140019 | 84 | 298 | 0.0 | 2.0 | 0.00 | 0.00 | 0.00 | 79 | 1013.4 |
| 20260905134557 | 83 | 5 | 0.0 | 1.0 | 0.00 | 0.00 | 0.00 | 82 | 1013.5 |
| 20260905133037 | 81 | 342 | 0.0 | 1.0 | 0.00 | 0.00 | 0.00 | 84 | 1013.2 |
| 20260905131516 | 79 | 118 | 0.0 | 0.0 | 0.00 | 0.00 | 0.00 | 88 | 1013.1 |
| 20260905130054 | 77 | 118 | 0.0 | 0.0 | 0.00 | 0.00 | 0.00 | 90 | 1013.2 |
| 20260905124537 | 76 | 118 | 0.0 | 0.0 | 0.00 | 0.00 | 0.00 | 92 | 1013.1 |
| 20260905123013 | 75 | 118 | 0.0 | 0.0 | 0.00 | 0.00 | 0.00 | 92 | 1013.1 |
| 20260905121550 | 75 | 118 | 0.0 | 0.0 | 0.00 | 0.00 | 0.00 | 91 | 1012.9 |
| 20260905120035 | 75 | 118 | 0.0 | 0.0 | 0.00 | 0.00 | 0.00 | 91 | 1012.8 |
| 20260905114514 | 75 | 118 | 0.0 | 0.0 | 0.00 | 0.00 | 0.00 | 91 | 1012.8 |
| 20260905113052 | 75 | 118 | 0.0 | 0.0 | 0.00 | 0.00 | 0.00 | 91 | 1012.8 |
| 20260905111542 | 75 | 118 | 0.0 | 0.0 | 0.00 | 0.00 | 0.00 | 90 | 1012.6 |
| 20260905110020 | 75 | 118 | 0.0 | 0.0 | 0.00 | 0.00 | 0.00 | 90 | 1012.5 |
| 20260905104600 | 75 | 118 | 0.0 | 0.0 | 0.00 | 0.00 | 0.00 | 90 | 1012.4 |
| 20260905104502 | 75 | 118 | 0.0 | 0.0 | 0.00 | 0.00 | 0.00 | 90 | 1012.4 |
| 20260905103049 | 75 | 118 | 0.0 | 0.0 | 0.00 | 0.00 | 0.00 | 90 | 1012.5 |
| 20260905101522 | 75 | 118 | 0.0 | 0.0 | 0.00 | 0.00 | 0.00 | 90 | 1012.5 |
| 20260905100009 | 75 | 118 | 0.0 | 0.0 | 0.00 | 0.00 | 0.00 | 90 | 1012.6 |
| 20260905094543 | 75 | 118 | 0.0 | 0.0 | 0.00 | 0.00 | 0.00 | 90 | 1012.4 |
| 20260905093032 | 76 | 118 | 0.0 | 0.0 | 0.00 | 0.00 | 0.00 | 90 | 1012.5 |
| 20260905091512 | 76 | 118 | 0.0 | 0.0 | 0.00 | 0.00 | 0.00 | 90 | 1012.4 |
| 20260905090109 | 76 | 118 | 0.0 | 0.0 | 0.00 | 0.00 | 0.00 | 90 | 1012.3 |
| 20260905084532 | 76 | 118 | 0.0 | 0.0 | 0.00 | 0.00 | 0.00 | 89 | 1012.4 |
| 20260905083012 | 76 | 118 | 0.0 | 0.0 | 0.00 | 0.00 | 0.00 | 89 | 1012.3 |
| 20260905081602 | 76 | 118 | 0.0 | 1.0 | 0.00 | 0.00 | 0.00 | 89 | 1012.2 |
| 20260905080043 | 77 | 118 | 0.0 | 0.0 | 0.00 | 0.00 | 0.00 | 88 | 1012.2 |
| 20260905074514 | 77 | 118 | 0.0 | 0.0 | 0.00 | 0.00 | 0.00 | 87 | 1012.2 |
| 20260905073100 | 77 | 118 | 0.0 | 0.0 | 0.00 | 0.00 | 0.00 | 87 | 1012.1 |
| 20260905071534 | 78 | 118 | 0.0 | 0.0 | 0.00 | 0.00 | 0.00 | 86 | 1012.2 |
| 20260905070017 | 78 | 118 | 0.0 | 0.0 | 0.00 | 0.00 | 0.00 | 85 | 1012.3 |
| 20260905064554 | 78 | 118 | 0.0 | 0.0 | 0.00 | 0.00 | 0.00 | 84 | 1012.3 |